User: anonymous
Location: Irma
(52.9170°N, 111.2330°W)
Time: 14:53:32
(UTC-06:00)
Language:

Cosmos 2279 Rocket - Orbit

View from above orbital plane
View from above orbital plane
View from above satellite
View from above satellite

Ground track
Ground track

The orbit data is extracted from the following two-line orbital elements,

1 23093U 94024B   14208.44788134  .00000048  00000-0  32345-4 0  8790
2 23093 082.9482 179.6094 0011600 085.5060 274.7422 13.77622414486070
Epoch (UTC): 27 July 2014 10:44:56
Eccentricity: 0.0011600
inclination: 82.9482°
perigee height: 964 km
apogee height: 981 km
right ascension of ascending node: 179.6094°
argument of perigee: 85.5060°
revolutions per day: 13.77622414
mean anomaly at epoch: 274.7422°
orbit number at epoch: 48607

The dashed part of the orbit path shows where the satellite is in the earth's shadow,  

DLR